Regional Weather Roundup
Issued by NWS

Home | Current Version | Previous Version | Graphics & Text | Print | Product List | Glossary On
Versions: 1 2 3 4 5 6 7 8 9 10 11 12 13 14 15 16 17 18 19 20 21 22 23 24 25 26 27 28 29 30 31 32 33 34 35 36 37 38 39 40 41 42 43 44 45 46
000
ASUS45 KBOU 201410
RWRCO

WEATHER ROUNDUP FOR COLORADO
NATIONAL WEATHER SERVICE DENVER/BOULDER CO
700 AM MST TUE FEB 20 2018

NOTE: "FAIR" INDICATES FEW OR NO CLOUDS BELOW 12000 FEET WITH NO
SIGNIFICANT WEATHER AND/OR OBSTRUCTIONS TO VISIBILITY.

COZ001>005-013-030-031-201500-
...NORTHWEST COLORADO...

CITY           SKY/WX    TMP DP  RH WIND       PRES   REMARKS
CRAIG          CLOUDY    -6 -11  79 CALM      29.88R HAZE
HAYDEN         LGT SNOW   2  -2  83 E5        29.86R FOG     WCI  -8
MEEKER         MOCLDY    -3  -7  82 CALM      29.85R
RANGELY        FAIR       1  -3  80 SE6       29.94R WCI -10
RABBIT EARS PA LGT SNOW  -6  -9  84 W12       29.58R WCI -24
STEAMBOAT SPGS CLOUDY     0  -4  85 CALM      29.83R
WALDEN         FAIR     -13 -20  70 SE3       29.72R
$$

COZ006>008-011-201500-
...WEST CENTRAL VALLEYS...

CITY           SKY/WX    TMP DP  RH WIND       PRES   REMARKS
GRAND JUNCTION MOCLDY    15  15 100 NW3       29.90R
MONTROSE       LGT SNOW  17  15  92 NE3       29.89R FOG
EAGLE          FLURRIES  13   7  77 CALM      29.83R
RIFLE          CLOUDY    13  10  88 CALM      29.88R
DELTA          MOCLDY    21  16  79 N5        29.89R WCI  15
NUCLA          FAIR      19  14  79 SW5       29.90R WCI  13
$$

COZ017>023-064>068-201500-
...SOUTHWEST COLORADO...

CITY           SKY/WX    TMP DP  RH WIND       PRES   REMARKS
DURANGO        FAIR       9   7  92 N8        29.87R WCI  -3
CORTEZ         FAIR       5   3  91 NE6       29.90R WCI  -6
PAGOSA SPRINGS LGT SNOW  17  14  89 SW7       29.84R WCI   7
TELLURIDE      FAIR       9  -1  65 SW7       29.75R WCI  -2
WOLF CREEK PAS CLOUDY    -4  -6  92 S30G43    29.63R WCI -31
$$

COZ009-010-012-014-032>034-037-058>063-201500-
...CENTRAL COLORADO...

CITY           SKY/WX    TMP DP  RH WIND       PRES   REMARKS
ASPEN          LGT SNOW  10   7  87 CALM      29.72R FOG
BUENA VISTA    FAIR      10  -6  48 CALM      29.70R
COPPER MTN     LGT SNOW   1  -6  71 W18G26    29.52R WCI -19
BERTHOUD PASS  LGT SNOW  -8 -18  59 MISG      29.46R
COTTONWOOD PAS FAIR      14  -6  41 W12G25    29.61R WCI   0
GUNNISON       FAIR       2  -3  80 CALM      29.78R
GRANBY         CLOUDY     5  -1  76 SE7       29.71R WCI  -7
KREMMLING      CLOUDY    12   1  62 CALM      29.78R
LEADVILLE      LGT SNOW   3  -1  83 NE6       29.60R FOG     WCI  -8
MONARCH PASS   FAIR      -2  -8  78 W38G48    29.61S WCI -31
SALIDA         FAIR      17   3  53 SW5       29.82R WCI  10
SUNLIGHT       LGT SNOW  -4  -8  84 SW8       29.66R WCI -19
WILKERSON PASS FAIR       0  -6  78 SW17G29   29.55R WCI -21
$$

COZ069>075-201500-
...SAN LUIS VALLEY/SANGRE DE CRISTO MOUNTAINS...

CITY           SKY/WX    TMP DP  RH WIND       PRES   REMARKS
ALAMOSA        FAIR      12   6  77 S10       29.78R WCI  -1
DEL NORTE      MOCLDY    15   2  57 W10       29.75R WCI   2
LA VETA PASS   CLOUDY     7   1  78 S37G59    29.70R WCI -19
SAGUACHE       FAIR       9   1  72 N5        29.76R WCI   0
$$

COZ035-036-038>040-201500-
...NORTHERN COLORADO FRONT RANGE...

CITY           SKY/WX    TMP DP  RH WIND       PRES   REMARKS
DENVER INTL AP MOCLDY    -2  -7  79 E3        29.87R
AURORA         MOCLDY    -6 -10  83 SE3       29.86R
FRONT RANGE AP MOCLDY     0  -6  78 CALM      29.89R
ERIE MUNI ARPT MOCLDY    -8 -12  81 CALM      29.97R
BOULDER MUN AP FAIR       1  -4  78 E3        29.89R
CENTENNIAL     CLOUDY     0  -5  79 CALM      29.84R
BROOMFIELD     CLOUDY     1  -2  85 CALM      29.86R
FORT COLLINS   FAIR      -6 -10  83 S5        29.93R WCI -17
LONGMONT       FAIR      -9 -15  74 CALM      29.95R
$$

COZ041-046-047-076>085-087-088-201500-
...PIKES PEAK/PALMER DIVIDE AND SOUTHERN FOOTHILLS...

CITY           SKY/WX    TMP DP  RH WIND       PRES   REMARKS
COLO. SPRINGS  MOCLDY     3   1  91 SE12      29.81R FOG     WCI -13
A. F. ACADEMY  MOCLDY    -6 -12  78 N8        29.76R WCI -22
SCHRIEVER AFB  NOT AVBL
CHEYENNE MTN   FLURRIES   3   1  92 CALM      29.70R
ELLICOTT         N/A    N/A N/A N/A SW6         N/A
FALCON         LGT SNOW   5   3  91 MISG      29.76R
FORT CARSON    MOCLDY     5   1  85 SE9       29.83R BLWGSNOWWCI  -9
LIMON          CLOUDY    -5  -7  91 NW7       29.89R WCI -19
MONUMENT HILL  CLOUDY   -13 -17  84 CALM      29.75R
CANON CITY     LGT SNOW  12   9  85 E7        29.85R WCI   2
WALSENBURG     NOT AVBL
TRINIDAD       CLOUDY    11   8  88 N7        29.83R WCI   0
$$

COZ042>045-048>051-090-091-201500-
...NORTHEAST COLORADO...

CITY           SKY/WX    TMP DP  RH WIND       PRES   REMARKS
GREELEY ARPT   FAIR     -16 -20  82 N5        29.96R WCI -29
AKRON          FAIR     -11 -14  86 W10       29.93R WCI -30
BURLINGTON     FAIR      -2  -7  79 NW16      29.97R WCI -23
WRAY           FAIR      -2  -8  78 NW5       30.02R WCI -12
YUMA           NOT AVBL
STERLING       FAIR      -8 -13  77 W6        30.00R WCI -21
HOLYOKE        FAIR       3  -4  72 NW9       30.01R WCI -11
FORT MORGAN    CLOUDY    -3  -8  76 CALM      29.97R
$$

COZ086-089-092>099-201500-
...SOUTHEAST COLORADO...

CITY           SKY/WX    TMP DP  RH WIND       PRES   REMARKS
PUEBLO         CLOUDY    10   3  73 SE9       29.92R WCI  -3
LA JUNTA       FAIR       6  -1  73 NE12      29.97R WCI  -9
LAMAR          FAIR       8  -1  66 N9        30.00R WCI  -5
SPRINGFIELD      N/A      9   6  88 N12       29.93R WCI  -6
$$




USA.gov is the U.S. government's official web portal to all federal, state and local government web resources and services.